Weather in Leski

Russia / Lipetsk Oblast     52°52′46″N   38°59′46″E
temp.,
°C
wind,
m/s
gust,
m/s
humid.,
%
clouds,
%
prec.,
mm/h
press.,
hPa
HPBL,
m
11 april, sun
sun1100:00+4nnw22570 0.0 102711
03:00+3nnw23604 0.0 102818
06:00+2n226496 0.0 102920
09:00+7ne245199 0.0 1030307
12:00+10nne454083 0.0 1030927
15:00+12ne5737100 0.0 10291097
18:00+10ne4848100 0.0 1030286
21:00+6ne41066100 0.0 1030180
12 april, mon
mon1200:00+5ne51267100 0.0 1030276
03:00+6ne51170100 0.0 1029312
06:00+5ne51183100 0.0 1028287
09:00+8ene5883100 0.0 1028381
12:00+13ene5670100 0.0 1027523
15:00+17e5757100 0.0 1025825
18:00+17e376078 0.0 1024163
21:00+13ese4126869 0.0 1024200
13 april, tue
tue1300:00+11se4127234 0.0 1024201
03:00+10se478081 0.0 1024113
06:00+9se3483100 0.0 102552
09:00+13se476022 0.0 1024299
12:00+18se71040100 0.0 10231070
15:00+19sse6838100 0.0 10221354
18:00+17se5947100 0.0 1021238
21:00+13ese495911 0.0 1021134
14 april, wed
wed1400:00+12sse386581 0.0 1021141
03:00+11ese457299 0.0 102060
06:00+10se497814 0.0 1020142
09:00+14sse476411 0.0 1020360
12:00+18sse585172 0.0 10191258
15:00+19s6842100 0.0 10182112
18:00+15wsw5868100 0.1 1018331
21:00+13s3375100 0.1 101847
15 april, thu
thu1500:00+12ssw2279100 0.0 101823
03:00+11wsw1182100 0.0 101810
06:00+11e118297 0.0 101710
09:00+14e1169100 0.0 1017263
12:00+16ssw4561100 0.5 1017646
15:00+15nw3254100 0.7 1016679
18:00+15nne2262100 0.0 101576
21:00+12n3775100 0.1 1013156